Location: St. Louis
(38.6270°N, 90.1994°W)
Time: 04:16:52
(UTC-05:00)

deb Delta - Pass Details

Date: 03 July 2022
Orbit: 1084 x 1202 km, 99.8° (Epoch: 15 August)

Event Time Altitude Azimuth Distance (km) Brightness Sun altitude
Exits shadow 01:13:21 31° 114° (ESE) 1,964 ? -28.4°
Maximum altitude 01:16:11 45° 67° (ENE) 1,597 ? -28.4°
Drops below altitude 10° 01:22:53 10° 358° (N) 3,127 ? -28.3°
Sets 01:25:36 0° 352° (N) 4,082 ? -28.2°
